Location: Unspecified
(0.0000°N, 0.0000°E)
Time: 20:28:10
(UTC+00:00)

Transit 2A - Visible Passes

Search period start: 28 November 2014 00:00
Search period end: 08 December 2014 00:00
Orbit: 596 x 966 km, 66.7° (Epoch: 27 November)

Date Brightness Start Highest point End Pass type
(mag) Time Alt. Az. Time Alt. Az. Time Alt. Az.
28 Nov 7.2 04:40:51 10° N 04:47:01 53° ENE 04:53:07 10° SE visible
29 Nov 7.9 04:07:47 10° N 04:13:27 34° ENE 04:19:03 10° SE visible
30 Nov 8.5 03:35:15 10° NNE 03:39:52 22° ENE 03:44:33 10° ESE visible
30 Nov 7.2 05:17:13 10° NW 05:22:56 35° WSW 05:28:32 10° S visible
01 Dec 8.9 03:03:40 11° NE 03:06:15 14° ENE 03:09:14 10° E visible
01 Dec 6.6 04:44:16 16° NW 04:49:22 55° WSW 04:55:27 10° S visible
02 Dec 6.4 04:12:38 32° NNW 04:15:48 85° WSW 04:22:03 10° SSE visible
03 Dec 6.7 03:40:57 52° NNE 03:42:14 63° ENE 03:48:24 10° SSE visible
03 Dec 8.2 05:23:18 10° W 05:25:16 12° WSW 05:27:14 10° SW visible
04 Dec 7.5 03:09:11 39° E 03:09:11 39° E 03:14:27 10° SE visible
04 Dec 7.8 04:49:46 17° W 04:51:41 19° WSW 04:55:56 10° SSW visible
05 Dec 8.5 02:37:21 21° E 02:37:21 21° E 02:40:07 10° SE visible
05 Dec 7.3 04:17:56 30° WSW 04:18:07 30° WSW 04:23:26 10° SSW visible
06 Dec 7.1 03:46:00 40° SW 03:46:00 40° SW 03:50:27 10° S visible
07 Dec 7.7 03:14:00 32° S 03:14:00 32° S 03:17:10 10° SSE visible
